GW2085 Weather Reports


Display with metric or nautical units.
time (UTC)temp
F
wind
direction
speed
MPH
gust
MPH
rain 1hr
in
rain 24hr
in
rain mn
in
humidity
%
barometer
mb
20260503211557 66 302 3.0 8.0 0.00 0.02 0.02 62 1013.8
20260503210052 65 252 3.0 7.0 0.00 0.02 0.02 64 1013.8
20260503204551 65 273 4.0 11.0 0.00 0.02 0.02 63 1013.7
20260503203057 66 276 1.0 6.0 0.00 0.02 0.02 64 1013.9
20260503201554 66 283 1.0 5.0 0.00 0.02 0.02 64 1013.9
20260503200104 66 245 2.0 6.0 0.00 0.02 0.02 64 1014.0
20260503194556 65 307 2.0 7.0 0.00 0.02 0.02 67 1014.1
20260503193056 64 226 4.0 10.0 0.00 0.02 0.02 67 1014.1
20260503191551 64 302 2.0 7.0 0.00 0.02 0.02 70 1014.2
20260503190056 65 338 2.0 7.0 0.00 0.02 0.02 70 1014.2
20260503184604 66 219 3.0 7.0 0.00 0.02 0.02 68 1014.2
20260503183055 65 282 1.0 4.0 0.00 0.02 0.02 68 1014.3
20260503181554 66 0 0.0 0.0 0.00 0.02 0.02 70 1014.3
20260503180105 65 0 0.0 1.0 0.00 0.02 0.02 73 1014.4
20260503174554 63 1 0.0 3.0 0.00 0.02 0.02 77 1014.4
20260503173102 62 27 0.0 4.0 0.00 0.02 0.02 79 1014.4
20260503171554 61 61 0.0 2.0 0.00 0.02 0.02 82 1014.4
20260503160110 58 0 0.0 2.0 0.01 0.02 0.02 89 1014.2
20260503081551 59 0 0.0 0.0 0.00 0.00 0.00 86 1013.3
20260503071557 59 77 0.0 1.0 0.00 0.00 0.00 85 1013.8
20260503060113 59 181 0.0 2.0 0.00 0.00 0.00 85 1013.6
20260503054620 59 195 0.0 2.0 0.00 0.00 0.00 85 1013.7
20260503053051 58 0 0.0 3.0 0.00 0.00 0.00 85 1013.5
20260503051558 58 0 0.0 1.0 0.00 0.00 0.00 85 1013.2
20260503050054 59 272 0.0 5.0 0.00 0.00 0.00 85 1012.8
20260503044549 59 0 0.0 3.0 0.00 0.00 0.00 85 1012.6
20260503043057 58 254 0.0 1.0 0.00 0.00 0.00 84 1012.4
20260503041553 59 184 0.0 0.0 0.00 0.00 0.00 83 1012.0
20260503040059 59 0 0.0 2.0 0.00 0.00 0.00 83 1011.9
20260503034552 60 0 0.0 2.0 0.00 0.00 0.00 82 1011.9
20260503033052 60 237 0.0 1.0 0.00 0.00 0.00 82 1011.7
20260503031553 60 0 0.0 2.0 0.00 0.00 0.00 80 1011.5
20260503030101 61 0 0.0 1.0 0.00 0.00 0.00 79 1011.5
20260503024551 62 264 1.0 3.0 0.00 0.00 0.00 78 1011.3
20260503023058 63 218 1.0 3.0 0.00 0.00 0.00 77 1011.2
20260503021558 64 266 0.0 3.0 0.00 0.00 0.00 75 1011.0
20260503020056 65 293 0.0 4.0 0.00 0.00 0.00 74 1011.0
20260503014549 66 226 2.0 5.0 0.00 0.00 0.00 73 1011.0
20260503013051 67 309 1.0 4.0 0.00 0.00 0.00 71 1010.9
20260503011557 68 260 1.0 4.0 0.00 0.00 0.00 69 1010.8
20260503010058 69 230 2.0 6.0 0.00 0.00 0.00 67 1010.8
20260503004614 71 51 1.0 5.0 0.00 0.00 0.00 65 1010.7
20260503003113 72 228 1.0 6.0 0.00 0.00 0.00 64 1010.9
20260503001626 72 290 2.0 4.0 0.00 0.00 0.00 63 1010.8
20260503000054 71 320 2.0 8.0 0.00 0.00 0.00 65 1010.7
20260502234610 72 233 2.0 8.0 0.00 0.00 0.00 64 1010.7
20260502233103 72 306 3.0 7.0 0.00 0.00 0.00 62 1010.8
20260502231603 73 34 2.0 6.0 0.00 0.00 0.00 63 1010.8
20260502230053 73 248 2.0 5.0 0.00 0.00 0.00 63 1011.0
20260502224603 73 304 3.0 8.0 0.00 0.00 0.00 62 1011.1
20260502223059 74 224 3.0 7.0 0.00 0.00 0.00 61 1011.4
20260502221554 75 319 4.0 7.0 0.00 0.00 0.00 60 1011.6
20260502220059 75 154 2.0 8.0 0.00 0.00 0.00 60 1011.7
20260502214551 75 233 2.0 10.0 0.00 0.00 0.00 60 1011.9
20260502213106 76 261 3.0 10.0 0.00 0.00 0.00 58 1011.9